Mp3, музыка

Название Размер Сиды, личи Добавлен
(Crossover Prog) Starlight #27 - 1982 - 2010, MP3, 320 kbps 105.70 МБ 28 85 27.03.2017 Скачать
(Trance) VA - Nothing But Pure Trance Vol 6 - 2015, MP3, 320 kbps 689.91 МБ 64 2 21.03.2017 Скачать
(Trance, Techno) State Of House - Modus Operandi (CDr) - 1996, MP3 (tracks), 320 kbps 97.96 МБ 75 45 21.03.2017 Скачать
(Trance) Plutian - Atlantis - (TR049) - WEB - 2015, MP3, 320 kbps 68.78 МБ 70 69 22.03.2017 Скачать
VA - Chill Оut Essential Vol.2 (2017) MP3 167.74 МБ 3 45 21.03.2017 Скачать
(Doom Metal, Post-Metal) Selma - Discography (1 demo, 1 split: Eyes of Amphibians, Io Apreo, 1 album) - 2010-2015, MP3, 128-320 kbps 176.71 МБ 50 30 24.03.2017 Скачать
(Uplifting Trance) VA - Trance Tracks - 2015, MP3, 320 kbps 126.74 МБ 70 22 22.03.2017 Скачать
(Шансон) VA - Звезды блатной волны [2015, MP3, 256 kbps] 679.79 МБ 70 57 23.03.2017 Скачать
(Progressive House) Henry Fong & Futuristic Polar Bears - Velocity (Revealed Recordings [REVR184B]) - 2015, MP3, 320 kbps 9.07 МБ 23 34 24.03.2017 Скачать
(Stoner Metal) Against the Grain - Road Warriors - 2015, MP3, 320 kbps 89.66 МБ 5 3 24.03.2017 Скачать
(Progressive Trance) Dave Devil - World Love E.P. - 1995, MP3, 192 kbps 31.66 МБ 81 75 21.03.2017 Скачать
VA - Adagio For Digital Love (2017) MP3 1.16 ГБ 11 73 21.03.2017 Скачать
(Trance) Heyder - You & Me (Red Soho [RDS028]) WEB - 2015, MP3 (tracks), 320 kbps 21.48 МБ 3 37 22.03.2017 Скачать
(Rock/Blues) Phil Butta - Progressions - 2015, MP3, 320 kbps 122.86 МБ 59 83 21.03.2017 Скачать
Helber Gun (Jesse Cabrera, Ramon Macias) - Singles And EP's Collection (2011-2017) MP3 398.78 МБ 77 24 24.03.2017 Скачать
(Шансон) Александр Харчиков - Авторский сборник [2013, MP3, [VBR] 96-192 kbps] 41.15 МБ 12 84 23.03.2017 Скачать
(Screamo, Post-Metal) Mort Mort Mort (ex-Aussitôt Mort, Aussitot Mort) - Le chant des sirènes (Le chant des sirenes) - 2014, MP3, V0 23.04 МБ 85 66 24.03.2017 Скачать
Newmachine - Karma (2017) MP3 77.98 МБ 84 25 21.03.2017 Скачать
Moter - Wave Transmission EP (2017) MP3 57.71 МБ 6 53 21.03.2017 Скачать
(Progressive house, electro house) Tiesto - Club Life 436 (2015-08-08), MP3 (image), 238 kbps 193.74 МБ 78 22 21.03.2017 Скачать
VA - Top 40 Nederlandse [Неделя № 17] (2015) MP3 369.97 МБ 2 26 20.04.2017 Скачать
VA - Chillout Bar Lounge: Brazilian Lounge Project (2015) MP3 121.39 МБ 54 62 20.04.2017 Скачать
VA - Show Me Your Body Erotic Lounge and Chill Out (2015) MP3 157.49 МБ 67 86 20.04.2017 Скачать
VA - Deep House Deluxe Selection #3 Best Deep House House Tech House Hits (2015) MP3 457.85 МБ 6 57 20.04.2017 Скачать
VA - Pro-Agressive House (2015) MP3 400.76 МБ 27 85 20.04.2017 Скачать
VA - Nu-Disco Essentials Vol.12 (2015) MP3 352.44 МБ 22 30 20.04.2017 Скачать
VA - Disco Collector (2015) MP3 439.02 МБ 60 20 20.04.2017 Скачать
VA - Club Bangers (2015) MP3 309.20 МБ 88 38 20.04.2017 Скачать
VA - Electro Nights (2015) MP3 333.36 МБ 15 10 20.04.2017 Скачать
VA - Melodic Trance (2015) MP3 121.82 МБ 58 28 20.04.2017 Скачать
VA - Prog-House (2015) MP3 410.63 МБ 50 47 20.04.2017 Скачать
VA - Deep House Sensations (2015) MP3 432.86 МБ 74 78 20.04.2017 Скачать
VA - Chill out Culture Volume 01 (2015) MP3 207.04 МБ 26 6 20.04.2017 Скачать
VA - Mysteries of Underground Music, Vol. 6 (2015) MP3 249.09 МБ 32 57 20.04.2017 Скачать
VA - Las Salinas Ibiza Beach Chill, Vol. 2 (2015) MP3 318.92 МБ 55 79 20.04.2017 Скачать
VA - Power Trance (2015) MP3 137.15 МБ 66 33 20.04.2017 Скачать
VA - Prog House (2015) MP3 384.13 МБ 88 14 20.04.2017 Скачать
VA - Indie Dance Boom Bems (2015) MP3 207.00 МБ 34 77 20.04.2017 Скачать
VA - Asian Temple Garden - Finest Buddha Chill Lounge Bar To Relax (2015) MP3 196.42 МБ 59 87 20.04.2017 Скачать
VA - Globaltronica: African Electronic Sounds (2015) MP3 207.73 МБ 67 22 20.04.2017 Скачать
VA - House Vip [06.05] (2015) MP3 359.70 МБ 83 37 20.04.2017 Скачать
(Chillout)(Lounge) VA - Barista Lounge: Rome, Vol. 2 2015, MP3, 320 Kbps 312.94 МБ 46 75 20.04.2017 Скачать
VA - We All Love Spring Lounge and Chill out Selection (2015) MP3 134.86 МБ 36 7 20.04.2017 Скачать
VA - Serious Club Sounds Vol. 7 (2015) MP3 247.26 МБ 33 21 20.04.2017 Скачать
VA - The Meaning of Life Lounge and Chillout Vol 2 (2015) MP3 122.76 МБ 83 38 20.04.2017 Скачать
VA - Top Miami (2015) MP3 217.29 МБ 37 72 20.04.2017 Скачать
VA - On the Beach 20 Lounge and Chill-Out Tunes (2015) MP3 265.97 МБ 50 20 20.04.2017 Скачать
VA - Trance Maniacs Party: Trancefer Wave #154 (2015) MP3 451.52 МБ 42 17 20.04.2017 Скачать
VA - Blue Trance (2015) MP3 157.59 МБ 11 20 20.04.2017 Скачать
VA - Future Trance Vol. 72 (Special Edition) (2015) MP3 698.41 МБ 49 85 20.04.2017 Скачать
VA - Acid Jazz Everything's Going to the Beat (Digitally Remastered) (2015) MP3 102.56 МБ 3 49 20.04.2017 Скачать
VA - Big City Trance Volume 90 (2015) MP3 427.10 МБ 69 52 20.04.2017 Скачать
VA - Vocal Trance Temptation Volume 49 (2015) MP3 429.46 МБ 9 43 20.04.2017 Скачать
VA - Techno Science (Amazing Techno Tracks) (2015) MP3 322.72 МБ 2 78 20.04.2017 Скачать
VA - Clubtraxxx Vol. 14 (2015) MP3 699.96 МБ 28 38 20.04.2017 Скачать
VA - Power of Electronic Dance Music, Vol. 2 (2015) MP3 471.89 МБ 59 23 20.04.2017 Скачать